#timestamp,LO_Frequency,Hit,StdDev 
1649988015.5,286047003.4,N
1649988035.3,286047003.3,N
1649988055.1,286047007.3,N
1649988075.9,286047008.4,N
1649988095.7,286047006.5,N
1649988115.6,286047010.7,N
1649988135.4,286047006.8,N
1649988155.2,286047003.3,N
1649988175.1,286047002.7,N
1649988176.0,286047002.7,N
1649988195.8,286046998.6,N
1649988215.6,286047002.7,N
1649988235.5,286047001.2,N
1649988255.3,286047004.1,N
1649988275.2,286047002.2,N
1649988295.9,286047001.0,N
1649988315.7,286046998.6,N
1649988335.6,286047000.7,N
1649988355.4,286047002.7,N
1649988375.2,286046999.8,N
1649988395.1,286047000.9,N
1649988396.0,286047000.9,N
1649988415.8,286047002.3,N
1649988435.7,286047012.0,Y
1649988455.5,286047010.3,P
1649988475.3,286047009.2,N
1649988495.2,286047006.2,N
1649988515.0,286047006.1,N
1649988515.9,286047006.1,N
1649988535.7,286047007.5,N
1649988555.6,286047005.9,N
1649988575.4,286047005.1,N
1649988595.3,286047005.0,N
1649988615.1,286047003.6,N
1649988616.0,286047003.6,N
1649988635.8,286047001.8,N
1649988655.7,286047002.6,N
1649988675.5,286046998.7,N
1649988695.3,286046996.6,N
1649988715.2,286046999.5,N
1649988735.0,286046998.9,N
1649988735.9,286046998.9,N
1649988755.8,286046997.5,N
1649988775.6,286046999.2,N
1649988795.4,286046995.6,N
1649988815.3,286046995.4,N
1649988835.1,286046996.3,N
1649988855.8,286046995.6,N
1649988875.7,286046998.0,N
1649988895.5,286046995.8,N
1649988915.4,286046997.2,N
1649988935.2,286047001.9,N
1649988955.0,286047010.4,N
1649988955.9,286047010.4,N
1649988975.8,286047005.8,N
1649988995.6,286047000.3,N
1649989015.5,286046999.8,N
1649989035.3,286046998.7,N
1649989055.1,286046999.2,N
1649989075.9,286046998.7,N
1649989095.7,286047011.9,N
1649989115.5,286046999.1,N
1649989135.4,286046998.0,N
1649989155.2,286046996.4,N
1649989175.1,286046996.7,N
1649989176.0,286046996.7,N
1649989195.8,286046995.1,N
1649989215.6,286046999.2,N
1649989235.5,286046998.9,N
1649989255.3,286046999.5,N
1649989275.1,286046998.8,N
1649989295.9,286046998.3,N
1649989315.7,286046999.4,N
1649989335.6,286047005.1,N
1649989355.4,286047004.0,N
1649989375.2,286046999.7,N
1649989395.1,286047005.6,N
1649989396.0,286047005.6,N
1649989415.8,286047004.3,N
1649989435.6,286047000.8,N
1649989455.5,286046998.2,N
1649989475.3,286046997.7,N
1649989495.2,286047000.7,N
1649989515.9,286047000.0,N
1649989535.7,286047000.0,N
1649989555.6,286047004.0,N
1649989575.4,286047002.7,N
1649989595.2,286047000.1,N
1649989615.1,286047002.2,N
1649989616.0,286047002.2,N
1649989635.8,286047000.8,N
1649989655.7,286046998.8,N
1649989675.5,286046996.8,N
1649989695.3,286046999.1,N
1649989715.2,286046997.6,N
1649989735.0,286046998.0,N
1649989735.9,286046998.0,N
1649989755.8,286046997.0,N
1649989775.6,286046997.0,N
1649989795.4,286046997.9,N
1649989815.3,286046998.0,N
1649989835.1,286046997.4,N
1649989855.8,286046999.0,N
1649989875.7,286046997.9,N
1649989895.5,286046999.7,N
1649989915.4,286046999.8,N
1649989935.2,286047007.6,Y
1649989955.0,286047007.2,P
1649989955.9,286047007.2,N
1649989975.8,286047005.8,N
1649989995.6,286047005.6,N
1649990015.5,286047008.9,Y
1649990035.3,286047000.2,P
1649990055.1,286046999.0,N
1649990075.9,286047004.1,N
1649990095.7,286047000.6,N
1649990115.5,286047000.4,N
1649990135.4,286047001.2,N
1649990155.2,286047004.2,N
1649990175.1,286047007.5,Y
1649990176.0,286047007.5,P
1649990195.8,286047002.9,N
1649990215.6,286047001.9,N
1649990235.5,286047000.4,N
1649990255.3,286046999.0,N
1649990275.2,286046996.9,N
1649990295.9,286046997.4,N
1649990315.7,286046996.0,N
1649990335.6,286046996.0,N
1649990355.4,286046996.0,N
1649990375.2,286046991.8,N
1649990395.1,286046994.6,N
1649990396.0,286046994.6,N
1649990415.8,286046994.1,N
1649990435.7,286046994.8,N
1649990455.5,286046992.2,N
1649990475.3,286046992.3,N
1649990495.2,286046991.0,N
1649990515.0,286046994.5,N
1649990515.9,286046994.5,N
1649990535.7,286047000.9,N
1649990555.6,286046999.4,N
1649990575.4,286046993.4,N
1649990595.3,286046994.8,N
1649990615.1,286046992.0,N
1649990616.0,286046992.0,N
1649990635.8,286046993.1,N
1649990655.7,286046991.1,N
1649990675.5,286046991.5,N
1649990695.3,286046990.9,N
1649990715.2,286046989.1,N
1649990735.0,286046988.8,Y
1649990735.9,286046988.8,P
1649990755.8,286046993.7,N
1649990775.6,286046992.6,N
1649990795.4,286046991.6,Y
1649990815.3,286046994.9,P
1649990835.1,286046996.6,N
1649990855.9,286046999.2,N
1649990875.7,286046999.1,N
1649990895.5,286046998.1,N
1649990915.4,286046999.3,N
1649990935.2,286046998.7,N
1649990955.0,286046996.9,N
1649990955.9,286046996.9,N
1649990975.8,286046998.7,N
1649990995.6,286046996.6,N
1649991015.5,286046996.8,N
1649991035.3,286046999.3,N
1649991055.1,286046999.0,N
1649991075.9,286047005.3,N
1649991095.7,286047003.9,N
1649991115.5,286047004.2,N
1649991135.4,286047000.4,N
1649991155.2,286046997.0,N
1649991175.1,286046994.9,N
1649991176.0,286046994.9,N
1649991195.8,286046996.1,N
1649991215.6,286046993.7,N
1649991235.5,286046994.5,N
1649991255.3,286046993.6,N
1649991275.1,286046992.5,N
1649991295.9,286046992.4,N
1649991315.7,286046992.7,N
1649991335.6,286046992.1,N
1649991355.4,286046992.4,N
1649991375.2,286046993.1,N
1649991395.1,286046992.7,N
1649991396.0,286046992.7,N
1649991415.8,286046992.6,N
1649991435.7,286046992.5,N
1649991455.5,286046990.1,N
1649991475.3,286046991.5,N
1649991495.2,286046989.2,N
1649991515.0,286046989.0,N
1649991515.9,286046989.0,N
1649991535.7,286046991.1,N
1649991555.6,286046990.4,N
1649991575.4,286046991.0,N
1649991595.3,286046991.8,N
